Location: Corocito
(10.1894°N, 67.0986°W)
Time: 09:55:48
(UTC+00:00)

Cosmos 1515 - Pass Details

Date: 29 May 2024
Orbit: 449 x 457 km, 82.5° (Epoch: 16 June)

Event Time Altitude Azimuth Distance (km) Brightness Sun altitude
Rises 23:05:53 0° 181° (S) 2,468 6.9 -5.3°
Reaches altitude 10° 23:07:57 10° 179° (S) 1,593 5.9 -5.8°
Maximum altitude 23:11:25 74° 93° (E) 477 3.4 -6.6°
Drops below altitude 10° 23:14:52 10° 9° (N) 1,585 6.4 -7.3°
Sets 23:16:56 0° 7° (N) 2,455 7.4 -7.8°
